Simultaneous Nadir Overpasses (SNOs) Predictions

Prediction of SNOs between GOES-16 and AQUA Satellite Orbit:

Table of predicted SNOs for the next 14.0 days since TLE Epoch: 4/13/2018
Index Date Time (GOES-16) GOES-16 Lat,Lon AQUA Lat,Lon Distance(km) Time Diff (sec)
1 04/15/2018 06:24:18 0.02, -75.22 -0.59, -72.43 317.71 80
2 04/15/2018 18:45:41 -0.02, -75.23 -0.55, -77.61 271.23 80
3 04/17/2018 18:36:10 -0.01, -75.25 0.09, -74.66 66.99 80
4 04/19/2018 18:23:59 -0.01, -75.27 0.74, -71.71 405.28 80
5 04/20/2018 06:45:15 0.01, -75.27 0.37, -76.86 181.14 80
6 04/22/2018 06:30:24 0.01, -75.30 -0.28, -73.91 157.57 80
7 04/22/2018 18:51:47 -0.02, -75.31 -0.80, -79.11 431.50 80
8 04/24/2018 06:18:13 0.02, -75.33 -0.93, -70.96 496.94 80
9 04/24/2018 18:39:36 -0.02, -75.34 -0.20, -76.14 91.87 80
10 04/26/2018 18:30:05 -0.02, -75.38 0.45, -73.19 248.59 80
11 04/27/2018 06:51:20 0.02, -75.39 0.65, -78.35 336.74 80




NCC Satellite Simultaneous Nadir Overpasses (SNOs) Prediction Service
